Year,Month,Day,Hour,Minute,Value (Times are PST for temperature in C)
2024,01,14,00,00,-4.10
2024,01,14,00,01,-4.10
2024,01,14,00,02,-4.10
2024,01,14,00,03,-4.10
2024,01,14,00,04,-4.10
2024,01,14,00,05,-4.10
2024,01,14,00,06,-4.10
2024,01,14,00,07,-4.10
2024,01,14,00,08,-4.10
2024,01,14,00,09,-4.10
2024,01,14,00,10,-4.10
2024,01,14,00,11,-4.10
2024,01,14,00,12,-4.10
2024,01,14,00,13,-4.10
2024,01,14,00,14,-4.10
2024,01,14,00,15,-4.10
2024,01,14,00,16,-4.10
2024,01,14,00,17,-4.10
2024,01,14,00,18,-4.10
2024,01,14,00,19,-4.10
2024,01,14,00,20,-4.10
2024,01,14,00,21,-4.20
2024,01,14,00,22,-4.20
2024,01,14,00,23,-4.20
2024,01,14,00,24,-4.20
2024,01,14,00,25,-4.20
2024,01,14,00,26,-4.20
2024,01,14,00,27,-4.20
2024,01,14,00,28,-4.20
2024,01,14,00,29,-4.20
2024,01,14,00,30,-4.30
2024,01,14,00,31,-4.30
2024,01,14,00,32,-4.30
2024,01,14,00,33,-4.30
2024,01,14,00,34,-4.30
2024,01,14,00,35,-4.30
2024,01,14,00,36,-4.30
2024,01,14,00,37,-4.40
2024,01,14,00,38,-4.40
2024,01,14,00,39,-4.40
2024,01,14,00,40,-4.40
2024,01,14,00,41,-4.40
2024,01,14,00,42,-4.40
2024,01,14,00,43,-4.40
2024,01,14,00,44,-4.50
2024,01,14,00,45,-4.50
2024,01,14,00,46,-4.50
2024,01,14,00,47,-4.50
2024,01,14,00,48,-4.60
2024,01,14,00,49,-4.60
2024,01,14,00,50,-4.60
2024,01,14,00,51,-4.60
2024,01,14,00,52,-4.60
2024,01,14,00,53,-4.60
2024,01,14,00,54,-4.60
2024,01,14,00,55,-4.60
2024,01,14,00,56,-4.60
2024,01,14,00,57,-4.60
2024,01,14,00,58,-4.60
2024,01,14,00,59,-4.60
2024,01,14,01,00,-4.60
2024,01,14,01,01,-4.60
2024,01,14,01,02,-4.60
2024,01,14,01,03,-4.60
2024,01,14,01,04,-4.60
2024,01,14,01,05,-4.60
2024,01,14,01,06,-4.70
2024,01,14,01,07,-4.60
2024,01,14,01,08,-4.70
2024,01,14,01,09,-4.70
2024,01,14,01,10,-4.70
2024,01,14,01,11,-4.70
2024,01,14,01,12,-4.70
2024,01,14,01,13,-4.70
2024,01,14,01,14,-4.70
2024,01,14,01,15,-4.70
2024,01,14,01,16,-4.70
2024,01,14,01,17,-4.70
2024,01,14,01,18,-4.70
2024,01,14,01,19,-4.70
2024,01,14,01,20,-4.70
2024,01,14,01,21,-4.70
2024,01,14,01,22,-4.70
2024,01,14,01,23,-4.70
2024,01,14,01,24,-4.70
2024,01,14,01,25,-4.70
2024,01,14,01,26,-4.70
2024,01,14,01,27,-4.70
2024,01,14,01,28,-4.70
2024,01,14,01,29,-4.70
2024,01,14,01,30,-4.80
2024,01,14,01,31,-4.80
2024,01,14,01,32,-4.80
2024,01,14,01,33,-4.80
2024,01,14,01,34,-4.80
2024,01,14,01,35,-4.80
2024,01,14,01,36,-4.80
2024,01,14,01,37,-4.80
2024,01,14,01,38,-4.80
2024,01,14,01,39,-4.80
2024,01,14,01,40,-4.80
2024,01,14,01,41,-4.80
2024,01,14,01,42,-4.80
2024,01,14,01,43,-4.80
2024,01,14,01,44,-4.80
2024,01,14,01,45,-4.80
2024,01,14,01,46,-4.80
2024,01,14,01,47,-4.80
2024,01,14,01,48,-4.80
2024,01,14,01,49,-4.80
2024,01,14,01,50,-4.80
2024,01,14,01,51,-4.80
2024,01,14,01,52,-4.80
2024,01,14,01,53,-4.90
2024,01,14,01,54,-4.90
2024,01,14,01,55,-4.90
2024,01,14,01,56,-4.90
2024,01,14,01,57,-4.90
2024,01,14,01,58,-5.00
2024,01,14,01,59,-5.00
2024,01,14,02,00,-5.00
2024,01,14,02,01,-5.10
2024,01,14,02,02,-5.10
2024,01,14,02,03,-5.10
2024,01,14,02,04,-5.10
2024,01,14,02,05,-5.10
2024,01,14,02,06,-5.20
2024,01,14,02,07,-5.20
2024,01,14,02,08,-5.20
2024,01,14,02,09,-5.20
2024,01,14,02,10,-5.30
2024,01,14,02,11,-5.30
2024,01,14,02,12,-5.30
2024,01,14,02,13,-5.30
2024,01,14,02,14,-5.40
2024,01,14,02,15,-5.40
2024,01,14,02,16,-5.40
2024,01,14,02,17,-5.40
2024,01,14,02,18,-5.40
2024,01,14,02,19,-5.40
2024,01,14,02,20,-5.40
2024,01,14,02,21,-5.50
2024,01,14,02,22,-5.50
2024,01,14,02,23,-5.50
2024,01,14,02,24,-5.60
2024,01,14,02,25,-5.60
2024,01,14,02,26,-5.60
2024,01,14,02,27,-5.60
2024,01,14,02,28,-5.70
2024,01,14,02,29,-5.70
2024,01,14,02,30,-5.70
2024,01,14,02,31,-5.70
2024,01,14,02,32,-5.70
2024,01,14,02,33,-5.70
2024,01,14,02,34,-5.80
2024,01,14,02,35,-5.80
2024,01,14,02,36,-5.80
2024,01,14,02,37,-5.80
2024,01,14,02,38,-5.90
2024,01,14,02,39,-5.90
2024,01,14,02,40,-5.90
2024,01,14,02,41,-6.00
2024,01,14,02,42,-6.00
2024,01,14,02,43,-6.00
2024,01,14,02,44,-6.00
2024,01,14,02,45,-6.10
2024,01,14,02,46,-6.10
2024,01,14,02,47,-6.10
2024,01,14,02,48,-6.10
2024,01,14,02,49,-6.10
2024,01,14,02,50,-6.20
2024,01,14,02,51,-6.20
2024,01,14,02,52,-6.20
2024,01,14,02,53,-6.20
2024,01,14,02,54,-6.20
2024,01,14,02,55,-6.20
2024,01,14,02,56,-6.30
2024,01,14,02,57,-6.30
2024,01,14,02,58,-6.30
2024,01,14,02,59,-6.30
2024,01,14,03,00,-6.30
2024,01,14,03,01,-6.30
2024,01,14,03,02,-6.40
2024,01,14,03,03,-6.40
2024,01,14,03,04,-6.40
2024,01,14,03,05,-6.40
2024,01,14,03,06,-6.40
2024,01,14,03,07,-6.40
2024,01,14,03,08,-6.40
2024,01,14,03,09,-6.40
2024,01,14,03,10,-6.40
2024,01,14,03,11,-6.40
2024,01,14,03,12,-6.40
2024,01,14,03,13,-6.40
2024,01,14,03,14,-6.50
2024,01,14,03,15,-6.50
2024,01,14,03,16,-6.50
2024,01,14,03,17,-6.50
2024,01,14,03,18,-6.50
2024,01,14,03,19,-6.60
2024,01,14,03,20,-6.60
2024,01,14,03,21,-6.60
2024,01,14,03,22,-6.60
2024,01,14,03,23,-6.60
2024,01,14,03,24,-6.60
2024,01,14,03,25,-6.60
2024,01,14,03,26,-6.60
2024,01,14,03,27,-6.60
2024,01,14,03,28,-6.70
2024,01,14,03,29,-6.70
2024,01,14,03,30,-6.70
2024,01,14,03,31,-6.70
2024,01,14,03,32,-6.70
2024,01,14,03,33,-6.80
2024,01,14,03,34,-6.80
2024,01,14,03,35,-6.80
2024,01,14,03,36,-6.80
2024,01,14,03,37,-6.80
2024,01,14,03,38,-6.80
2024,01,14,03,39,-6.90
2024,01,14,03,40,-6.90
2024,01,14,03,41,-6.90
2024,01,14,03,42,-6.90
2024,01,14,03,43,-6.90
2024,01,14,03,44,-7.00
2024,01,14,03,45,-7.00
2024,01,14,03,46,-7.00
2024,01,14,03,47,-7.00
2024,01,14,03,48,-7.00
2024,01,14,03,49,-7.10
2024,01,14,03,50,-7.10
2024,01,14,03,51,-7.10
2024,01,14,03,52,-7.10
2024,01,14,03,53,-7.10
2024,01,14,03,54,-7.10
2024,01,14,03,55,-7.10
2024,01,14,03,56,-7.10
2024,01,14,03,57,-7.00
2024,01,14,03,58,-7.00
2024,01,14,03,59,-7.00
2024,01,14,04,00,-7.00
2024,01,14,04,01,-7.00
2024,01,14,04,02,-7.00
2024,01,14,04,03,-7.10
2024,01,14,04,04,-7.10
2024,01,14,04,05,-7.10
2024,01,14,04,06,-7.10
2024,01,14,04,07,-7.10
2024,01,14,04,08,-7.10
2024,01,14,04,09,-7.10
2024,01,14,04,10,-7.10
2024,01,14,04,11,-7.20
2024,01,14,04,12,-7.20
2024,01,14,04,13,-7.20
2024,01,14,04,14,-7.20
2024,01,14,04,15,-7.20
2024,01,14,04,16,-7.20
2024,01,14,04,17,-7.20
2024,01,14,04,18,-7.20
2024,01,14,04,19,-7.20
2024,01,14,04,20,-7.20
2024,01,14,04,21,-7.20
2024,01,14,04,22,-7.30
2024,01,14,04,23,-7.30
2024,01,14,04,24,-7.30
2024,01,14,04,25,-7.30
2024,01,14,04,26,-7.30
2024,01,14,04,27,-7.30
2024,01,14,04,28,-7.30
2024,01,14,04,29,-7.30
2024,01,14,04,30,-7.40
2024,01,14,04,31,-7.40
2024,01,14,04,32,-7.40
2024,01,14,04,33,-7.40
2024,01,14,04,34,-7.40
2024,01,14,04,35,-7.40
2024,01,14,04,36,-7.40
2024,01,14,04,37,-7.40
2024,01,14,04,38,-7.40
2024,01,14,04,39,-7.50
2024,01,14,04,40,-7.50
2024,01,14,04,41,-7.50
2024,01,14,04,42,-7.50
2024,01,14,04,43,-7.50
2024,01,14,04,44,-7.60
2024,01,14,04,45,-7.60
2024,01,14,04,46,-7.60
2024,01,14,04,47,-7.60
2024,01,14,04,48,-7.60
2024,01,14,04,49,-7.60
2024,01,14,04,50,-7.60
2024,01,14,04,51,-7.60
2024,01,14,04,52,-7.70
2024,01,14,04,53,-7.70
2024,01,14,04,54,-7.70
2024,01,14,04,55,-7.70
2024,01,14,04,56,-7.70
2024,01,14,04,57,-7.70
2024,01,14,04,58,-7.70
2024,01,14,04,59,-7.70
2024,01,14,05,00,-7.70
2024,01,14,05,01,-7.70
2024,01,14,05,02,-7.80
2024,01,14,05,03,-7.80
2024,01,14,05,04,-7.80
2024,01,14,05,05,-7.80
2024,01,14,05,06,-7.80
2024,01,14,05,07,-7.80
2024,01,14,05,08,-7.80
2024,01,14,05,09,-7.80
2024,01,14,05,10,-7.80
2024,01,14,05,11,-7.80
2024,01,14,05,12,-7.80
2024,01,14,05,13,-7.80
2024,01,14,05,14,-7.80
2024,01,14,05,15,-7.80
2024,01,14,05,16,-7.80
2024,01,14,05,17,-7.80
2024,01,14,05,18,-7.80
2024,01,14,05,19,-7.80
2024,01,14,05,20,-7.80
2024,01,14,05,21,-7.80
2024,01,14,05,22,-7.80
2024,01,14,05,23,-7.80
2024,01,14,05,24,-7.80
2024,01,14,05,25,-7.80
2024,01,14,05,26,-7.80
2024,01,14,05,27,-7.80
2024,01,14,05,28,-7.80
2024,01,14,05,29,-7.80
2024,01,14,05,30,-7.80
2024,01,14,05,31,-7.80
2024,01,14,05,32,-7.80
2024,01,14,05,33,-7.80
2024,01,14,05,34,-7.80
2024,01,14,05,35,-7.80
2024,01,14,05,36,-7.80
2024,01,14,05,37,-7.80
2024,01,14,05,38,-7.80
2024,01,14,05,39,-7.80
2024,01,14,05,40,-7.80
2024,01,14,05,41,-7.80
2024,01,14,05,42,-7.80
2024,01,14,05,43,-7.80
2024,01,14,05,44,-7.80
2024,01,14,05,45,-7.80
2024,01,14,05,46,-7.80
2024,01,14,05,47,-7.80
2024,01,14,05,48,-7.80
2024,01,14,05,49,-7.80
2024,01,14,05,50,-7.80
2024,01,14,05,51,-7.80
2024,01,14,05,52,-7.80
2024,01,14,05,53,-7.80
2024,01,14,05,54,-7.80
2024,01,14,05,55,-7.80
2024,01,14,05,56,-7.80
2024,01,14,05,57,-7.80
2024,01,14,05,58,-7.80
2024,01,14,05,59,-7.80
2024,01,14,06,00,-7.80
2024,01,14,06,01,-7.80
2024,01,14,06,02,-7.80
2024,01,14,06,03,-7.80
2024,01,14,06,04,-7.80
2024,01,14,06,05,-7.80
2024,01,14,06,06,-7.80
2024,01,14,06,07,-7.80
2024,01,14,06,08,-7.80
2024,01,14,08,23,-7.00
2024,01,14,08,24,-7.00
2024,01,14,08,25,-7.00
2024,01,14,08,26,-7.00
2024,01,14,08,27,-6.90
2024,01,14,08,28,-6.90
2024,01,14,08,29,-6.90
2024,01,14,08,30,-6.90
2024,01,14,08,31,-6.90
2024,01,14,08,32,-6.90
2024,01,14,08,33,-6.80
2024,01,14,08,34,-6.80
2024,01,14,08,35,-6.80
2024,01,14,08,36,-6.80
2024,01,14,08,37,-6.80
2024,01,14,08,38,-6.80
2024,01,14,08,39,-6.70
2024,01,14,08,40,-6.70
2024,01,14,08,41,-6.60
2024,01,14,08,42,-6.60
2024,01,14,08,43,-6.50
2024,01,14,08,44,-6.40
2024,01,14,08,45,-6.40
2024,01,14,08,46,-6.40
2024,01,14,08,47,-6.30
2024,01,14,08,48,-6.30
2024,01,14,08,49,-6.20
2024,01,14,08,50,-6.20
2024,01,14,08,51,-6.10
2024,01,14,08,52,-6.10
2024,01,14,08,53,-6.00
2024,01,14,08,54,-5.90
2024,01,14,08,55,-5.90
2024,01,14,08,56,-5.80
2024,01,14,08,57,-5.80
2024,01,14,08,58,-5.70
2024,01,14,08,59,-5.70
2024,01,14,09,00,-5.60
2024,01,14,09,01,-5.60
2024,01,14,09,02,-5.60
2024,01,14,09,03,-5.50
2024,01,14,09,04,-5.50
2024,01,14,09,05,-5.50
2024,01,14,09,06,-5.40
2024,01,14,09,07,-5.40
2024,01,14,09,08,-5.40
2024,01,14,09,09,-5.30
2024,01,14,09,10,-5.30
2024,01,14,09,11,-5.30
2024,01,14,09,12,-5.20
2024,01,14,09,13,-5.20
2024,01,14,09,14,-5.10
2024,01,14,09,15,-5.10
2024,01,14,09,16,-5.00
2024,01,14,09,17,-5.00
2024,01,14,09,18,-4.90
2024,01,14,09,19,-4.90
2024,01,14,09,20,-4.90
2024,01,14,09,21,-4.80
2024,01,14,09,22,-4.80
2024,01,14,09,23,-4.80
2024,01,14,09,24,-4.70
2024,01,14,09,25,-4.70
2024,01,14,09,26,-4.60
2024,01,14,09,27,-4.60
2024,01,14,09,28,-4.50
2024,01,14,09,29,-4.40
2024,01,14,09,30,-4.30
2024,01,14,09,31,-4.30
2024,01,14,09,32,-4.20
2024,01,14,09,33,-4.20
2024,01,14,09,34,-4.10
2024,01,14,09,35,-4.10
2024,01,14,09,36,-4.00
2024,01,14,09,37,-4.00
2024,01,14,09,38,-3.90
2024,01,14,09,39,-3.90
2024,01,14,09,40,-3.80
2024,01,14,09,41,-3.80
2024,01,14,09,42,-3.70
2024,01,14,09,43,-3.70
2024,01,14,09,44,-3.60
2024,01,14,09,45,-3.60
2024,01,14,09,46,-3.50
2024,01,14,09,47,-3.40
2024,01,14,09,48,-3.40
2024,01,14,09,49,-3.30
2024,01,14,09,50,-3.30
2024,01,14,09,51,-3.20
2024,01,14,09,52,-3.20
2024,01,14,09,53,-3.20
2024,01,14,09,54,-3.10
2024,01,14,09,55,-3.10
2024,01,14,09,56,-3.10
2024,01,14,09,57,-3.10
2024,01,14,09,58,-3.00
2024,01,14,09,59,-3.00
2024,01,14,10,00,-3.00
2024,01,14,10,01,-3.00
2024,01,14,10,02,-2.90
2024,01,14,10,03,-2.90
2024,01,14,10,04,-2.90
2024,01,14,10,05,-2.90
2024,01,14,10,06,-2.90
2024,01,14,10,07,-2.80
2024,01,14,10,08,-2.80
2024,01,14,10,09,-2.80
2024,01,14,10,10,-2.80
2024,01,14,10,11,-2.70
2024,01,14,10,12,-2.70
2024,01,14,10,13,-2.70
2024,01,14,10,14,-2.60
2024,01,14,10,15,-2.60
2024,01,14,10,16,-2.50
2024,01,14,10,17,-2.50
2024,01,14,10,18,-2.40
2024,01,14,10,19,-2.40
2024,01,14,10,20,-2.30
2024,01,14,10,21,-2.30
2024,01,14,10,22,-2.20
2024,01,14,10,23,-2.20
2024,01,14,10,24,-2.20
2024,01,14,10,25,-2.20
2024,01,14,10,26,-2.10
2024,01,14,10,27,-2.10
2024,01,14,10,28,-2.10
2024,01,14,10,29,-2.00
2024,01,14,10,30,-2.00
2024,01,14,10,31,-2.00
2024,01,14,10,32,-1.90
2024,01,14,10,33,-1.90
2024,01,14,10,34,-1.90
2024,01,14,10,35,-1.80
2024,01,14,10,36,-1.80
2024,01,14,10,37,-1.80
2024,01,14,10,38,-1.70
2024,01,14,10,39,-1.70
2024,01,14,10,40,-1.60
2024,01,14,10,41,-1.60
2024,01,14,10,42,-1.50
2024,01,14,10,43,-1.50
2024,01,14,10,44,-1.40
2024,01,14,10,45,-1.40
2024,01,14,10,46,-1.40
2024,01,14,10,47,-1.40
2024,01,14,10,48,-1.40
2024,01,14,10,49,-1.40
2024,01,14,10,50,-1.40
2024,01,14,10,51,-1.30
2024,01,14,10,52,-1.30
2024,01,14,10,53,-1.30
2024,01,14,10,54,-1.30
2024,01,14,10,55,-1.20
2024,01,14,10,56,-1.20
2024,01,14,10,57,-1.20
2024,01,14,10,58,-1.10
2024,01,14,10,59,-1.10
2024,01,14,11,00,-1.10
2024,01,14,11,01,-1.00
2024,01,14,11,02,-1.00
2024,01,14,11,03,-1.00
2024,01,14,11,04,-1.00
2024,01,14,11,05,-0.90
2024,01,14,11,06,-0.90
2024,01,14,11,07,-0.90
2024,01,14,11,08,-0.80
2024,01,14,11,09,-0.80
2024,01,14,11,10,-0.80
2024,01,14,11,11,-0.80
2024,01,14,11,12,-0.80
2024,01,14,11,13,-0.80
2024,01,14,11,14,-0.80
2024,01,14,11,15,-0.80
2024,01,14,11,16,-0.80
2024,01,14,11,17,-0.70
2024,01,14,11,18,-0.70
2024,01,14,11,19,-0.60
2024,01,14,11,20,-0.50
2024,01,14,11,21,-0.40
2024,01,14,11,22,-0.40
2024,01,14,11,23,-0.30
2024,01,14,11,24,-0.20
2024,01,14,11,25,-0.20
2024,01,14,11,26,-0.10
2024,01,14,11,27,-0.10
2024,01,14,11,28,-0.10
2024,01,14,11,29,-0.10
2024,01,14,11,30,-0.10
2024,01,14,11,31,-0.10
2024,01,14,11,32,-0.20
2024,01,14,11,33,-0.20
2024,01,14,11,34,-0.20
2024,01,14,11,35,-0.20
2024,01,14,11,36,-0.20
2024,01,14,11,37,-0.20
2024,01,14,11,38,-0.20
2024,01,14,11,39,-0.20
2024,01,14,11,40,-0.20
2024,01,14,11,41,-0.10
2024,01,14,11,42,-0.10
2024,01,14,11,43,-0.10
2024,01,14,11,44,-0.10
2024,01,14,11,45,-0.10
2024,01,14,11,46,-0.10
2024,01,14,11,47,-0.10
2024,01,14,11,48,-0.10
2024,01,14,11,49,-0.10
2024,01,14,11,50,-0.10
2024,01,14,11,51,-0.10
2024,01,14,11,52,-0.20
2024,01,14,11,53,-0.20
2024,01,14,11,54,-0.20
2024,01,14,11,55,-0.20
2024,01,14,11,56,-0.10
2024,01,14,11,57,-0.10
2024,01,14,11,58,-0.10
2024,01,14,11,59,0.00
2024,01,14,12,00,0.00
2024,01,14,12,01,0.10
2024,01,14,12,02,0.10
2024,01,14,12,03,0.10
2024,01,14,12,04,0.20
2024,01,14,12,05,0.20
2024,01,14,12,06,0.20
2024,01,14,12,07,0.20
2024,01,14,12,08,0.10
2024,01,14,12,09,0.10
2024,01,14,12,10,0.10
2024,01,14,12,11,0.10
2024,01,14,12,12,0.10
2024,01,14,12,13,0.10
2024,01,14,12,14,0.10
2024,01,14,12,15,0.10
2024,01,14,12,16,0.00
2024,01,14,12,17,0.00
2024,01,14,12,18,0.00
2024,01,14,12,19,-0.10
2024,01,14,12,20,-0.10
2024,01,14,12,21,-0.10
2024,01,14,12,22,-0.10
2024,01,14,12,23,-0.20
2024,01,14,12,24,-0.10
2024,01,14,12,25,-0.10
2024,01,14,12,26,-0.10
2024,01,14,12,27,-0.10
2024,01,14,12,28,-0.10
2024,01,14,12,29,-0.10
2024,01,14,12,30,-0.10
2024,01,14,12,31,-0.10
2024,01,14,12,32,-0.10
2024,01,14,12,33,-0.10
2024,01,14,12,34,-0.10
2024,01,14,12,35,-0.10
2024,01,14,12,36,-0.10
2024,01,14,12,37,-0.10
2024,01,14,12,38,-0.10
2024,01,14,12,39,-0.10
2024,01,14,12,40,-0.10
2024,01,14,12,41,-0.10
2024,01,14,12,42,-0.10
2024,01,14,12,43,-0.10
2024,01,14,12,44,-0.10
2024,01,14,12,45,-0.10
2024,01,14,12,46,-0.10
2024,01,14,12,47,-0.10
2024,01,14,12,48,-0.10
2024,01,14,12,49,-0.10
2024,01,14,12,50,-0.10
2024,01,14,12,51,-0.10
2024,01,14,12,52,-0.10
2024,01,14,12,53,-0.10
2024,01,14,12,54,-0.10
2024,01,14,12,55,0.00
2024,01,14,12,56,0.00
2024,01,14,12,57,0.00
2024,01,14,12,58,0.00
2024,01,14,12,59,0.00
2024,01,14,13,00,-0.10
2024,01,14,13,01,-0.10
2024,01,14,13,02,-0.10
2024,01,14,13,03,-0.10
2024,01,14,13,04,-0.10
2024,01,14,13,05,-0.20
2024,01,14,13,06,-0.20
2024,01,14,13,07,-0.20
2024,01,14,13,08,-0.10
2024,01,14,13,09,-0.10
2024,01,14,13,10,0.00
2024,01,14,13,11,0.00
2024,01,14,13,12,0.00
2024,01,14,13,13,0.10
2024,01,14,13,14,0.10
2024,01,14,13,15,0.20
2024,01,14,13,16,0.20
2024,01,14,13,17,0.30
2024,01,14,13,18,0.30
2024,01,14,13,19,0.40
2024,01,14,13,20,0.40
2024,01,14,13,21,0.50
2024,01,14,13,22,0.50
2024,01,14,13,23,0.50
2024,01,14,13,24,0.50
2024,01,14,13,25,0.50
2024,01,14,13,26,0.50
2024,01,14,13,27,0.50
2024,01,14,13,28,0.50
2024,01,14,13,29,0.50
2024,01,14,13,30,0.50
2024,01,14,13,31,0.50
2024,01,14,13,32,0.40
2024,01,14,13,33,0.40
2024,01,14,13,34,0.40
2024,01,14,13,35,0.40
2024,01,14,13,36,0.40
2024,01,14,13,37,0.30
2024,01,14,13,38,0.30
2024,01,14,13,39,0.30
2024,01,14,13,40,0.30
2024,01,14,13,41,0.30
2024,01,14,13,42,0.20
2024,01,14,13,43,0.20
2024,01,14,13,44,0.20
2024,01,14,13,45,0.20
2024,01,14,13,46,0.20
2024,01,14,13,47,0.10
2024,01,14,13,48,0.10
2024,01,14,13,49,0.10
2024,01,14,13,50,0.00
2024,01,14,13,51,0.00
2024,01,14,13,52,0.00
2024,01,14,13,53,-0.10
2024,01,14,13,54,-0.10
2024,01,14,13,55,-0.20
2024,01,14,13,56,-0.20
2024,01,14,13,57,-0.20
2024,01,14,13,58,-0.30
2024,01,14,13,59,-0.30
2024,01,14,14,00,-0.30
2024,01,14,14,01,-0.30
2024,01,14,14,02,-0.30
2024,01,14,14,03,-0.30
2024,01,14,14,04,-0.30
2024,01,14,14,05,-0.20
2024,01,14,14,06,-0.20
2024,01,14,14,07,-0.10
2024,01,14,14,08,-0.10
2024,01,14,14,09,-0.10
2024,01,14,14,10,0.00
2024,01,14,14,11,0.00
2024,01,14,14,12,0.00
2024,01,14,14,13,0.00
2024,01,14,14,14,0.00
2024,01,14,14,15,0.00
2024,01,14,14,16,-0.10
2024,01,14,14,17,-0.10
2024,01,14,14,18,-0.10
2024,01,14,14,19,-0.10
2024,01,14,14,20,-0.10
2024,01,14,14,21,-0.10
2024,01,14,14,22,-0.10
2024,01,14,14,23,-0.10
2024,01,14,14,24,-0.10
2024,01,14,14,25,-0.10
2024,01,14,14,26,-0.10
2024,01,14,14,27,-0.10
2024,01,14,14,28,-0.10
2024,01,14,14,29,-0.10
2024,01,14,14,30,-0.10
2024,01,14,14,31,-0.10
2024,01,14,14,32,-0.10
2024,01,14,14,33,-0.10
2024,01,14,14,34,-0.10
2024,01,14,14,35,-0.10
2024,01,14,14,36,-0.20
2024,01,14,14,37,-0.20
2024,01,14,14,38,-0.20
2024,01,14,14,39,-0.20
2024,01,14,14,40,-0.20
2024,01,14,14,41,-0.20
2024,01,14,14,42,-0.20
2024,01,14,14,43,-0.20
2024,01,14,14,44,-0.20
2024,01,14,14,45,-0.10
2024,01,14,14,46,-0.10
2024,01,14,14,47,-0.10
2024,01,14,14,48,-0.10
2024,01,14,14,49,-0.10
2024,01,14,14,50,-0.10
2024,01,14,14,51,0.00
2024,01,14,14,52,-0.10
2024,01,14,14,53,-0.10
2024,01,14,14,54,-0.10
2024,01,14,14,55,-0.10
2024,01,14,14,56,-0.10
2024,01,14,14,57,-0.10
2024,01,14,14,58,-0.10
2024,01,14,14,59,-0.10
2024,01,14,15,00,-0.20
2024,01,14,15,01,-0.20
2024,01,14,15,02,-0.20
2024,01,14,15,03,-0.20
2024,01,14,15,04,-0.20
2024,01,14,15,05,-0.20
2024,01,14,15,06,-0.20
2024,01,14,15,07,-0.20
2024,01,14,15,08,-0.20
2024,01,14,15,09,-0.20
2024,01,14,15,10,-0.20
2024,01,14,15,11,-0.20
2024,01,14,15,12,-0.20
2024,01,14,15,13,-0.20
2024,01,14,15,14,-0.20
2024,01,14,15,15,-0.20
2024,01,14,15,16,-0.30
2024,01,14,15,17,-0.30
2024,01,14,15,18,-0.30
2024,01,14,15,19,-0.30
2024,01,14,15,20,-0.30
2024,01,14,15,21,-0.30
2024,01,14,15,22,-0.30
2024,01,14,15,23,-0.30
2024,01,14,15,24,-0.30
2024,01,14,15,25,-0.30
2024,01,14,15,26,-0.30
2024,01,14,15,27,-0.30
2024,01,14,15,28,-0.30
2024,01,14,15,29,-0.30
2024,01,14,15,30,-0.30
2024,01,14,15,31,-0.30
2024,01,14,15,32,-0.30
2024,01,14,15,33,-0.30
2024,01,14,15,34,-0.30
2024,01,14,15,35,-0.30
2024,01,14,15,36,-0.30
2024,01,14,15,37,-0.30
2024,01,14,15,38,-0.40
2024,01,14,15,39,-0.40
2024,01,14,15,40,-0.40
2024,01,14,15,41,-0.40
2024,01,14,15,42,-0.40
2024,01,14,15,43,-0.40
2024,01,14,15,44,-0.40
2024,01,14,15,45,-0.40
2024,01,14,15,46,-0.40
2024,01,14,15,47,-0.50
2024,01,14,15,48,-0.50
2024,01,14,15,49,-0.50
2024,01,14,15,50,-0.50
2024,01,14,15,51,-0.50
2024,01,14,15,52,-0.50
2024,01,14,15,53,-0.50
2024,01,14,15,54,-0.50
2024,01,14,15,55,-0.50
2024,01,14,15,56,-0.50
2024,01,14,15,57,-0.60
2024,01,14,15,58,-0.60
2024,01,14,15,59,-0.60
2024,01,14,16,00,-0.60
2024,01,14,16,01,-0.60
2024,01,14,16,02,-0.60
2024,01,14,16,03,-0.60
2024,01,14,16,04,-0.70
2024,01,14,16,05,-0.70
2024,01,14,16,06,-0.70
2024,01,14,16,07,-0.70
2024,01,14,16,08,-0.70
2024,01,14,16,09,-0.70
2024,01,14,16,10,-0.70
2024,01,14,16,11,-0.70
2024,01,14,16,12,-0.80
2024,01,14,16,13,-0.80
2024,01,14,16,14,-0.80
2024,01,14,16,15,-0.80
2024,01,14,16,16,-0.80
2024,01,14,16,17,-0.80
2024,01,14,16,18,-0.80
2024,01,14,16,19,-0.80
2024,01,14,16,20,-0.80
2024,01,14,16,21,-0.80
2024,01,14,16,22,-0.80
2024,01,14,16,23,-0.90
2024,01,14,16,24,-0.90
2024,01,14,16,25,-0.90
2024,01,14,16,26,-0.90
2024,01,14,16,27,-0.90
2024,01,14,16,28,-0.90
2024,01,14,16,29,-0.90
2024,01,14,16,30,-1.00
2024,01,14,16,31,-1.00
2024,01,14,16,32,-1.00
2024,01,14,16,33,-1.10
2024,01,14,16,34,-1.10
2024,01,14,16,35,-1.10
2024,01,14,16,36,-1.10
2024,01,14,16,37,-1.10
2024,01,14,16,38,-1.20
2024,01,14,16,39,-1.20
2024,01,14,16,40,-1.20
2024,01,14,16,41,-1.20
2024,01,14,16,42,-1.30
2024,01,14,16,43,-1.30
2024,01,14,16,44,-1.30
2024,01,14,16,45,-1.30
2024,01,14,16,46,-1.30
2024,01,14,16,47,-1.30
2024,01,14,16,48,-1.40
2024,01,14,16,49,-1.40
2024,01,14,16,50,-1.40
2024,01,14,16,51,-1.40
2024,01,14,16,52,-1.40
2024,01,14,16,53,-1.50
2024,01,14,16,54,-1.50
2024,01,14,16,55,-1.50
2024,01,14,16,56,-1.50
2024,01,14,16,57,-1.60
2024,01,14,16,58,-1.60
2024,01,14,16,59,-1.60
2024,01,14,17,00,-1.60
2024,01,14,17,01,-1.60
2024,01,14,17,02,-1.60
2024,01,14,17,03,-1.70
2024,01,14,17,04,-1.70
2024,01,14,17,05,-1.70
2024,01,14,17,06,-1.70
2024,01,14,17,07,-1.70
2024,01,14,17,08,-1.70
2024,01,14,17,09,-1.80
2024,01,14,17,10,-1.80
2024,01,14,17,11,-1.80
2024,01,14,17,12,-1.80
2024,01,14,17,13,-1.80
2024,01,14,17,14,-1.80
2024,01,14,17,15,-1.80
2024,01,14,17,16,-1.90
2024,01,14,17,17,-1.90
2024,01,14,17,18,-1.90
2024,01,14,17,19,-1.90
2024,01,14,17,20,-1.90
2024,01,14,17,21,-1.90
2024,01,14,17,22,-2.00
2024,01,14,17,23,-2.00
2024,01,14,17,24,-2.00
2024,01,14,17,25,-2.00
2024,01,14,17,26,-2.10
2024,01,14,17,27,-2.10
2024,01,14,17,28,-2.10
2024,01,14,17,29,-2.10
2024,01,14,17,30,-2.10
2024,01,14,17,31,-2.20
2024,01,14,17,32,-2.20
2024,01,14,17,33,-2.20
2024,01,14,17,34,-2.20
2024,01,14,17,35,-2.20
2024,01,14,17,36,-2.20
2024,01,14,17,37,-2.20
2024,01,14,17,38,-2.20
2024,01,14,17,39,-2.30
2024,01,14,17,40,-2.30
2024,01,14,17,41,-2.30
2024,01,14,17,42,-2.30
2024,01,14,17,43,-2.30
2024,01,14,17,44,-2.30
2024,01,14,17,45,-2.30
2024,01,14,17,46,-2.30
2024,01,14,17,47,-2.30
2024,01,14,17,48,-2.30
2024,01,14,17,49,-2.40
2024,01,14,17,50,-2.40
2024,01,14,17,51,-2.40
2024,01,14,17,52,-2.40
2024,01,14,17,53,-2.40
2024,01,14,17,54,-2.40
2024,01,14,17,55,-2.40
2024,01,14,17,56,-2.40
2024,01,14,17,57,-2.40
2024,01,14,17,58,-2.40
2024,01,14,17,59,-2.40
2024,01,14,18,00,-2.40
2024,01,14,18,01,-2.50
2024,01,14,18,02,-2.50
2024,01,14,18,03,-2.50
2024,01,14,18,04,-2.50
2024,01,14,18,05,-2.50
2024,01,14,18,06,-2.50
2024,01,14,18,07,-2.40
2024,01,14,18,08,-2.40
2024,01,14,18,09,-2.40
2024,01,14,18,10,-2.40
2024,01,14,18,11,-2.40
2024,01,14,18,12,-2.40
2024,01,14,18,13,-2.40
2024,01,14,18,14,-2.30
2024,01,14,18,15,-2.30
2024,01,14,18,16,-2.30
2024,01,14,18,17,-2.30
2024,01,14,18,18,-2.30
2024,01,14,18,19,-2.30
2024,01,14,18,20,-2.30
2024,01,14,18,21,-2.30
2024,01,14,18,22,-2.30
2024,01,14,18,23,-2.20
2024,01,14,18,24,-2.20
2024,01,14,18,25,-2.20
2024,01,14,18,26,-2.20
2024,01,14,18,27,-2.20
2024,01,14,18,28,-2.20
2024,01,14,18,29,-2.20
2024,01,14,18,30,-2.10
2024,01,14,18,31,-2.10
2024,01,14,18,32,-2.10
2024,01,14,18,33,-2.10
2024,01,14,18,34,-2.10
2024,01,14,18,35,-2.10
2024,01,14,18,36,-2.10
2024,01,14,18,37,-2.10
2024,01,14,18,38,-2.10
2024,01,14,18,39,-2.10
2024,01,14,18,40,-2.10
2024,01,14,18,41,-2.10
2024,01,14,18,42,-2.10
2024,01,14,18,43,-2.10
2024,01,14,18,44,-2.10
2024,01,14,18,45,-2.10
2024,01,14,18,46,-2.20
2024,01,14,18,47,-2.20
2024,01,14,18,48,-2.20
2024,01,14,18,49,-2.20
2024,01,14,18,50,-2.10
2024,01,14,18,51,-2.10
2024,01,14,18,52,-2.10
2024,01,14,18,53,-2.20
2024,01,14,18,54,-2.20
2024,01,14,18,55,-2.20
2024,01,14,18,56,-2.20
2024,01,14,18,57,-2.20
2024,01,14,18,58,-2.20
2024,01,14,18,59,-2.20
2024,01,14,19,00,-2.20
2024,01,14,19,01,-2.20
2024,01,14,19,02,-2.20
2024,01,14,19,03,-2.20
2024,01,14,19,04,-2.20
2024,01,14,19,05,-2.20
2024,01,14,19,06,-2.20
2024,01,14,19,07,-2.20
2024,01,14,19,08,-2.20
2024,01,14,19,09,-2.20
2024,01,14,19,10,-2.20
2024,01,14,19,11,-2.20
2024,01,14,19,12,-2.20
2024,01,14,19,13,-2.20
2024,01,14,19,14,-2.20
2024,01,14,19,15,-2.20
2024,01,14,19,16,-2.20
2024,01,14,19,17,-2.30
2024,01,14,19,18,-2.30
2024,01,14,19,19,-2.30
2024,01,14,19,20,-2.30
2024,01,14,19,21,-2.30
2024,01,14,19,22,-2.30
2024,01,14,19,23,-2.30
2024,01,14,19,24,-2.30
2024,01,14,19,25,-2.30
2024,01,14,19,26,-2.30
2024,01,14,19,27,-2.30
2024,01,14,19,28,-2.30
2024,01,14,19,29,-2.30
2024,01,14,19,30,-2.30
2024,01,14,19,31,-2.30
2024,01,14,19,32,-2.30
2024,01,14,19,33,-2.40
2024,01,14,19,34,-2.40
2024,01,14,19,35,-2.40
2024,01,14,19,36,-2.40